Weather in Belozerye

Russia / Ulyanovsk Oblast     54°19′49″N   47°10′37″E
temp.,
°C
wind,
m/s
gust,
m/s
humid.,
%
clouds,
%
prec.,
mm/h
press.,
hPa
HPBL,
m
13 may, thu
thu1301:00+15ese37725 0.0 1023124
04:00+13ese337165 0.0 102340
07:00+15e4126717 0.0 1022279
10:00+19se61257100 0.1 1021648
13:00+19ese61065100 0.1 1020409
16:00+23se81657100 0.1 10191987
19:00+21sse612605 0.1 1019539
22:00+16se51482100 5.1 1019395
14 may, fri
fri1401:00+14sse34857 0.1 101953
04:00+13sse228586 0.2 102017
07:00+16s128332 0.0 102174
10:00+21sse3468100 0.0 1021471
13:00+24sse5754100 0.0 10201115
16:00+26s69475 0.0 10201502
19:00+22sse49625 0.0 1019234
22:00+18sse3566100 0.0 101984
15 may, sat
sat1501:00+16sse386996 0.0 1019133
04:00+15sse496374 0.0 1019132
07:00+17sse3126516 0.0 1020245
10:00+23s6124868 0.0 1019522
13:00+26s7103858 0.0 10191177
16:00+27s6103895 0.0 10181325
19:00+22sse41155100 0.0 1018255
22:00+18sse48575 0.0 1018115
16 may, sun
sun1601:00+17sse410568 0.0 1018153
04:00+16sse411595 0.0 1018173
07:00+17sse3126613 0.0 1018257
10:00+24s594825 0.0 1018545
13:00+27ssw6936100 0.0 10171730
16:00+27ssw5842100 0.0 10171842
19:00+23sw3562100 0.0 101793
22:00+19s225998 0.0 101711
17 may, mon
mon1701:00+17ssw116075 0.0 101711
04:00+18sse2259100 0.0 101811
07:00+19sse226415 0.0 101820
10:00+24s23486 0.0 1018403
13:00+28s23405 0.0 10181062
16:00+29sw243110 0.0 10172706
19:00+25ese235340 0.0 101769
22:00+20ese22575 0.0 101826